Location: Brno
(49.2000°N, 16.6330°E)
Time: 17:34:36
(UTC+01:00)

Cosmos 1603 - Visible Passes

Search period start: 20 January 2018 00:00
Search period end: 30 January 2018 00:00
Orbit: 830 x 861 km, 71.0° (Epoch: 19 January)

Date Brightness Start Highest point End Pass type
(mag) Time Alt. Az. Time Alt. Az. Time Alt. Az.
20 Jan 3.8 17:00:36 10° SSW 17:06:21 80° ESE 17:12:08 10° NNE visible
20 Jan 5.6 18:46:31 10° W 18:51:09 25° NW 18:55:50 10° NNE visible
21 Jan 5.6 18:32:30 10° W 18:37:11 25° NW 18:41:55 10° NNE visible
22 Jan 5.6 18:18:29 10° W 18:23:14 26° NW 18:28:00 10° NNE visible
23 Jan 5.5 18:04:29 10° W 18:09:16 26° NW 18:14:03 10° NNE visible
24 Jan 5.5 17:50:29 10° W 17:55:18 27° NW 18:00:09 10° NNE visible
25 Jan 5.5 17:36:29 10° WSW 17:41:20 27° NW 17:46:13 10° NNE visible
26 Jan 5.4 17:22:30 10° WSW 17:27:23 28° NW 17:32:17 10° NNE visible
27 Jan 5.4 17:08:30 10° WSW 17:13:25 28° NW 17:18:21 10° NNE visible
28 Jan 6.3 18:45:10 10° NNW 18:45:42 10° NNW 18:46:14 10° NNW visible
29 Jan 6.2 18:30:54 10° NNW 18:31:43 10° NNW 18:32:31 10° NNW visible
